sat.trackr.live / text

‹ back to catalog

SBIRS GEO-2 (USA 241)

NORAD 39120 · 2013-011A

PAYLOAD ACTIVE UNKNOWN

§ Identity

Operator
Country
US
Launch date
2013-03-19
Launch site
AFETR
Launch vehicle
Mass (kg)
RCS (m²)
13.59

Purposes: comms

External: N2YO · Heavens-Above · Gunter

§ Orbital elements

Epoch: 2026-05-25T03:30:24.933024Z

Period
1,436.10 min
Inclination
4.4408°
Eccentricity
0.0002151
Mean motion
1.00271501 rev/d
Perigee alt
35,777.6 km
Apogee alt
35,795.7 km
Semi-major
42,164.8 km
B*
0.0000e+0
RAAN
52.4866°
Arg perigee
3.8222°
Mean anomaly
189.2349°
Rev number
4,830

§ Raw data

SBIRS GEO-2 (USA 241)1 39120U 13011A   26145.14612191 -.00000289  00000+0  00000+0 0  99922 39120   4.4408  52.4866 0002151   3.8222 189.2349  1.00271501 48302

JSON: /api/v1/satellites/39120 · /tle

For live sub-satellite position, see the globe view (requires WebGL).

§ Visibility from observer

Set your observer location to see the next 7 days of passes ≥ 10°. The values pass through the URL so the page stays shareable.

No JS? Fill the form by hand. The geolocation button needs JavaScript.